Location: Laura�t
(43.9341°N, 0.2497°E)
Time: 00:35:28
(UTC+00:00)

Cosmos 1666 - Pass Details

Date: 03 March 2021
Orbit: 497 x 518 km, 82.5° (Epoch: 17 April)

Event Time Altitude Azimuth Distance (km) Brightness Sun altitude
Rises 18:28:18 0° 146° (SE) 2,573 5.9 -7.7°
Reaches altitude 10° 18:31:06 10° 122° (ESE) 1,697 4.8 -8.2°
Maximum altitude 18:33:15 15° 86° (E) 1,418 4.2 -8.6°
Drops below altitude 10° 18:35:25 10° 51° (NE) 1,709 4.9 -8.9°
Sets 18:38:15 0° 27° (NNE) 2,602 6.0 -9.5°
